STARLINK-3834, 52368

Orbit data source: Space-Track

STARLINK-3834, 52368 is a payload satellite owned by SpaceX/Seattle (US) in LEO that was launched on Fri, 29 Apr 2022 UTC via an FALCON 9 launch vehicle from the Air Force Eastern Test Range (AFETR). Payload-class satellites include a variety of spacecraft equipped with specific instruments for various scientific and technological missions. These include communications satellites like Starlink; space stations such as the ISS; scientific satellites like the Hubble; Earth observation satellites from companies like Planet Labs, Umbra, and HawkEye 360; GPS; miniature CubeSats for education and research; and military/defense satellites.

Loading next visibility...
Identifier
52368, 2022-045AP
Orbit
LEO
Country
Flag of USUS
Related business
Manufacturer
SpaceX/Seattle
Mission
Operational spacecraft
Bus & Motor
STARLINK, Unknown motor
Mass
297 kg wet, ~275 kg dry
Launch date (UTC)
2022-04-29 (4 years ago)
Launch vehicle
FALCON 9
Launch site
Air Force Eastern Test Range (AFETR)
Object type
Payload
Rocket body
Debris
Shape & HBR
Unknown shape, 10.1 m
Radar Cross Section
Large (>1 m²)

Expand to show TLE details & history
Last TLE update: 9 hours ago

TLE from 9 hours ago
0 STARLINK-3834
1 52368U 22045AP  25346.92272187 -.00001791  00000-0 -94488-4 0  9992
2 52368  53.2158 218.6325 0001383  89.4098 270.7053 15.08823139202817
Epoch: 2025-12-12T22:08Z
TLE epoch observation values (Epoch: 2025-12-12T22:08:43.169Z)
Latitude
0.00001°
Longitude
164.59524°
Altitude
540.681 km
Speed
7.593 km/s
True Right ascension
14h 34m 31s
True Declination
0° 00' 00"
Sunlit
Object was in daylight at epoch
Visualization orbit readout
Latitude
Unknown
Longitude
Unknown
Altitude
Unknown
Speed
Unknown
Apparent Right ascension
Unknown
Apparent Declination
Unknown
Sunlit
N/A
Visualization observer readout
Local Sidereal Time
05:23:54
Azimuth
Unknown
Elevation
Unknown
Doppler factor
Unknown
Orbital elements
Apogee altitude
540.997 km
Perigee altitude
539.083 km
Semi-major axis
6,918.177 km
Eccentricity
0.00014
Inclination
53.2158°
RAAN
218.6325°
Arg. of periapsis
89.4098°
True anomaly
270.68945°
Mean anomaly
270.7053°
Eccentric anomaly
270.69738°
Mean motion
3.77186 °/min
Orbital period
95.44 mins
BSTAR
-0.000094488
Loading maneuver chart data...
Computing Atmospheric mass density...
Loading historical data...
Loading historical data...
Loading historical data...
Loading historical data...
Loading historical data...
Loading historical data...
Loading historical data...

Documentation

Showing up to 5 results
|